801  
NZUS99 KDVN 172110  
HRRRRR  
HOURLY WEATHER ROUNDUP  
NATIONAL WEATHER SERVICE QUAD CITIES IA IL  
300 PM CST WED JAN 17 2018  
 
NOTE: "FAIR" INDICATES FEW OR NO CLOUDS BELOW 12,000 FEET WITH  
NO SIGNIFICANT WEATHER AND/OR OBSTRUCTIONS TO VISIBILITY.  
------------------------------------------------------------------  
 
CITY SKY/WX TMP DP RH WIND PRES REMARKS  
BURLINGTON SUNNY 21 9 59 SW13 30.48F WCI 9  
CEDAR RAPIDS FAIR 23 10 57 SW21 30.38F WCI 8  
DAVENPORT FAIR 21 10 62 SW15 30.44F WCI 8  
DUBUQUE FAIR 20 9 62 SW14 30.33F WCI 7  
IOWA CITY FAIR 24 10 55 SW15 30.45F WCI 11  
MOLINE FAIR 22 11 62 SW13G21 30.44F WCI 10  
------------------------------------------------------------------  
THE STATIONS BELOW ARE NOT NWS STATIONS AND ARE NOT SUBJECT TO NWS  
QUALITY CONTROL. SOME STATIONS DO NOT REPORT WEATHER SUCH AS FOG.  
* - STATIONS THAT REPORT TMP AND DP IN WHOLE DEGREES CELSIUS, WHICH  
ARE THEN CONVERTED TO FAHRENHEIT.  
------------------------------------------------------------------  
 
CITY SKY/WX TMP DP RH WIND PRES REMARKS  
CLINTON FAIR 21 12 68 SW17 30.42F WCI 7  
FAIRFIELD * SUNNY 23 10 58 SW14 30.45F WCI 11  
FORT MADISON * SUNNY 21 12 68 SW10 30.49F WCI 10  
FREEPORT FAIR 17 10 72 SW17G23 30.38F WCI 1  
INDEPENDENCE * FAIR 22 10 59 SW14G20 30.35F WCI 9  
KEOKUK * SUNNY 21 10 63 SW14 30.49F WCI 8  
MACOMB SUNNY 21 12 67 SW10 30.52F WCI 10  
MONTICELLO * FAIR 23 9 54 SW14G21 30.37F WCI 11  
MT PLEASANT SUNNY 23 12 63 SW16 30.47F WCI 10  
MUSCATINE * FAIR 23 10 58 SW13 30.47F WCI 11  
SAVANNA FAIR 20 10 66 SW13 30.41F WCI 7  
STERLING/R.F. FAIR 22 12 65 SW10 30.42F WCI 11  
VINTON * FAIR 23 9 54 SW12G20 30.38F WCI 12  
WASHINGTON * SUNNY 23 12 63 SW15 30.46F WCI 10  
------------------------------------------------------------------  
 
 
CLICK HERE TO GO TO PREVIOUS BULLETINS.

The Nexlab IL Page
The Nexlab IA Page
The Nexlab MO Page Main Text Page